Theta_e
335 334 336 337 337 338 339 339 339 340 339 339 338 338 338 338 339 338 340 342 340 339 339 339 338 338 339 338 338 340 340 341 342 344 343 342 344 344 347 347 348 346 344 344 344 344 343 342 342 341 341 341 341 341 342 340 340 336 331 331 329 328 328 330 329 327 322 318 318 317 317 320 321 322 322 321 318 318 318 316 316 315 315 315 314
336 335 336 336 336 339 339 339 339 338 339 339 338 338 338 339 340 340 341 341 341 341 340 341 341 340 339 338 339 340 339 338 340 344 345 345 345 346 347 347 346 345 344 344 343 344 342 341 341 340 340 341 342 343 343 339 337 333 330 327 330 329 327 328 328 328 324 320 317 314 315 316 318 319 320 321 320 318 317 317 317 316 314 315 315
332 333 336 335 337 338 338 338 339 340 340 339 339 339 339 339 340 341 341 341 341 342 341 340 343 343 342 341 341 340 342 344 344 345 346 346 346 346 346 346 344 343 343 342 342 343 343 342 341 341 340 341 340 340 340 338 336 332 330 327 325 328 327 327 328 331 325 324 323 317 312 310 312 313 316 318 319 318 316 315 314 313 312 313 314
330 331 333 335 336 336 336 338 339 340 340 339 339 338 338 339 339 341 341 342 342 343 343 344 344 344 345 345 345 343 341 344 346 346 346 345 343 344 345 345 344 343 343 343 343 344 344 342 342 341 340 341 341 339 338 337 336 333 331 330 328 323 323 323 326 326 324 321 316 317 314 314 310 310 311 314 316 316 315 314 315 313 312 312 314
331 332 334 335 335 335 335 337 339 339 339 338 338 338 338 339 340 341 342 342 343 343 343 344 343 343 343 344 344 343 343 342 342 340 342 342 341 342 342 343 343 343 343 343 344 344 343 343 342 343 341 341 342 340 339 339 336 334 333 331 328 326 322 323 322 327 324 329 323 315 312 311 316 316 311 311 313 311 312 315 315 314 313 312 312
333 333 334 335 336 336 337 338 338 338 339 339 340 339 339 339 340 341 342 343 343 344 344 343 342 340 339 337 336 337 335 336 336 336 337 338 339 341 342 342 342 342 342 342 343 343 342 343 344 342 342 341 340 340 340 339 337 334 333 332 330 332 327 322 320 324 326 326 328 329 328 321 319 313 312 308 313 314 313 312 313 315 314 313 312
332 334 335 336 337 337 338 337 337 337 339 341 341 340 340 339 340 341 342 342 344 344 344 343 342 341 340 338 339 338 336 337 341 342 340 340 341 340 340 341 341 341 341 342 343 343 343 343 343 342 342 341 340 340 339 338 337 335 334 332 332 331 329 322 322 321 325 325 325 328 328 327 325 314 312 313 308 310 310 312 313 312 314 313 310
330 332 333 335 336 337 337 337 337 337 340 340 340 340 340 340 340 341 342 342 343 344 343 343 341 340 340 340 340 339 339 339 340 341 343 342 340 339 339 338 340 341 341 342 343 343 343 342 342 342 340 340 337 337 338 339 338 337 335 334 333 332 330 327 325 323 322 322 325 324 324 324 325 322 322 319 319 311 308 311 313 314 314 313 313
330 331 333 334 335 337 338 337 338 338 338 339 339 340 340 340 340 342 342 343 344 344 343 342 342 342 341 340 339 340 341 342 342 341 340 341 340 339 338 337 338 340 342 342 342 342 341 340 340 340 340 338 336 337 338 337 338 336 334 333 333 331 331 331 330 325 325 326 323 323 323 321 319 321 322 322 320 319 314 308 308 312 313 314 313
328 331 332 334 336 337 339 339 338 338 339 340 341 341 340 340 339 340 341 342 344 344 343 343 342 342 340 340 339 340 341 341 341 338 339 339 338 338 337 336 337 337 340 342 342 342 341 340 338 339 339 337 335 336 336 336 336 335 336 335 335 333 333 331 330 330 328 329 327 325 321 320 320 319 319 318 317 319 317 310 311 308 306 310 313
320 326 330 333 336 337 337 337 338 339 340 340 340 339 340 339 339 339 340 342 343 343 343 343 342 342 340 340 340 340 340 339 337 337 337 337 336 336 335 335 336 337 339 340 341 340 340 339 338 338 339 337 334 334 334 333 334 334 335 335 335 334 332 331 330 331 330 329 327 326 324 322 322 321 320 319 321 318 316 315 312 310 308 309 310
318 323 327 330 333 335 336 336 336 337 339 339 339 339 339 338 338 338 340 341 342 343 343 342 341 341 342 342 340 340 341 338 337 336 336 336 336 334 334 334 334 336 338 338 339 338 338 337 337 336 335 336 334 334 334 334 334 333 331 331 332 333 334 331 331 329 329 329 328 327 326 326 326 325 326 323 322 321 320 317 313 309 307 309 308
314 321 326 330 331 333 334 335 337 338 338 339 339 339 339 338 337 337 338 341 341 343 342 343 342 342 341 341 341 342 342 339 338 338 337 336 335 334 333 332 333 333 335 337 338 337 337 336 335 334 334 334 334 332 332 331 331 330 329 329 330 329 329 331 329 330 329 328 327 328 327 327 326 328 328 325 324 324 321 316 311 310 307 306 305
312 317 323 329 331 333 334 335 336 338 338 339 339 339 338 338 337 337 337 340 341 342 342 342 342 342 342 341 341 341 341 340 339 338 338 337 337 335 334 334 333 334 336 337 336 335 334 334 333 333 334 333 331 331 329 328 329 327 328 327 326 328 328 330 330 330 329 329 330 327 325 324 324 325 325 324 323 320 318 317 311 308 310 306 305
309 314 319 325 332 334 335 335 336 338 338 338 339 338 338 337 336 336 337 339 340 341 341 342 341 341 342 341 341 341 341 339 339 340 340 338 338 337 337 337 336 337 337 338 334 333 333 332 332 333 332 331 329 328 327 327 327 325 325 326 325 324 324 325 326 327 325 325 324 324 324 323 322 321 320 321 322 321 320 318 312 307 305 306 303
306 310 317 324 330 334 336 336 337 338 339 339 339 338 338 337 337 336 336 338 339 340 340 341 342 342 341 341 341 342 341 340 339 339 340 340 339 339 338 339 338 338 338 337 332 332 332 331 331 331 330 329 328 327 326 325 324 324 323 323 322 319 322 321 322 322 323 323 323 322 321 319 319 317 317 319 318 321 320 319 315 312 307 303 305
306 309 312 322 328 332 335 336 337 339 339 339 339 339 338 338 337 336 337 338 339 340 341 341 341 341 342 342 342 342 341 340 338 339 340 340 340 340 340 339 339 338 337 334 331 331 332 331 330 329 328 327 327 326 325 325 324 324 323 321 321 319 319 319 319 319 320 319 319 318 319 317 315 316 315 316 317 317 317 317 316 314 312 307 303
306 308 312 318 323 328 332 335 337 338 339 339 339 340 340 339 338 336 336 337 338 339 340 341 340 340 342 342 342 342 341 340 340 339 339 338 339 341 341 338 337 336 335 332 331 330 330 329 329 327 326 326 326 324 323 323 323 322 322 321 320 319 318 317 317 317 317 317 316 315 316 313 314 314 314 315 315 316 315 315 315 315 315 310 309
308 308 311 314 319 325 330 334 336 338 340 340 340 340 339 340 339 338 337 337 338 339 340 340 340 341 341 341 342 341 341 340 339 340 339 338 338 339 338 337 337 335 333 330 329 328 328 328 327 325 325 324 324 323 322 322 322 320 319 318 317 317 316 316 316 316 315 315 314 314 314 312 313 313 313 313 313 313 314 313 313 313 314 314 312
307 309 310 312 316 321 326 331 332 336 337 339 340 340 339 339 338 338 338 339 339 339 339 338 339 341 342 342 342 341 340 339 339 339 337 337 338 338 337 336 335 333 332 329 328 326 327 326 325 324 323 323 322 321 321 321 321 320 318 317 316 315 315 315 313 314 313 314 313 312 312 311 312 311 311 311 310 311 313 311 311 311 312 315 313
308 309 311 313 316 320 325 330 332 335 338 338 339 339 339 339 338 338 337 337 338 338 338 338 339 339 341 339 339 340 340 339 339 339 338 337 338 338 336 336 334 332 331 328 327 326 325 325 323 322 322 321 321 320 320 319 319 318 317 317 315 314 313 314 313 312 311 313 312 310 311 311 312 311 310 310 308 309 310 310 310 310 310 312 311
311 310 310 312 315 319 323 329 332 335 337 337 338 340 339 338 337 337 337 336 337 337 338 338 339 339 339 339 340 340 339 339 338 338 337 336 337 337 336 334 332 331 329 327 326 326 325 323 322 321 321 320 320 319 318 318 317 316 316 315 314 313 313 313 312 310 311 312 313 310 309 310 311 310 310 307 307 307 307 306 307 308 308 310 313
313 313 312 311 313 317 320 323 329 333 335 337 338 338 337 338 337 337 336 336 337 338 338 338 338 338 339 339 339 338 338 338 337 337 336 336 336 336 335 334 332 330 328 327 326 325 323 322 322 321 320 319 319 318 317 316 315 315 314 314 314 313 313 312 311 311 309 311 311 311 310 310 311 310 310 310 310 308 307 306 306 307 308 308 308
316 315 314 313 312 313 315 320 324 330 334 336 337 337 338 338 337 337 336 337 338 338 338 337 338 338 339 339 338 338 338 337 336 336 336 337 336 335 334 333 331 330 327 326 325 323 322 321 321 319 319 318 318 317 315 315 314 315 314 313 313 313 313 313 311 310 309 309 310 310 310 310 310 309 308 308 308 308 307 305 306 307 307 307 307
311 313 315 316 315 312 312 315 320 325 331 336 336 336 337 338 338 337 336 337 338 338 338 338 338 337 338 338 338 337 336 336 336 336 336 336 335 335 333 332 330 328 327 325 323 321 320 320 320 319 318 317 316 315 313 314 315 316 315 314 312 312 313 312 312 311 310 310 310 310 309 310 310 308 308 306 307 307 306 306 305 305 305 306 306
308 310 313 315 316 315 313 315 319 324 329 334 336 337 337 338 338 338 337 337 337 338 337 337 337 337 337 337 337 336 335 336 336 336 335 336 335 334 333 332 330 327 326 324 321 320 319 319 320 319 318 317 315 314 313 313 314 315 315 314 313 312 312 311 311 311 310 311 310 310 309 309 309 308 307 307 307 307 306 305 304 304 304 306 306
307 309 311 314 317 317 315 314 316 321 327 333 335 336 337 337 338 338 338 338 337 337 337 337 337 337 336 336 336 335 335 336 336 335 335 335 334 334 333 331 329 327 325 323 321 319 319 320 319 318 317 316 314 313 313 313 313 314 314 313 312 312 311 311 311 310 310 310 310 310 310 309 309 309 308 307 307 307 306 305 305 306 305 305 305
308 309 311 315 318 319 317 315 315 319 325 331 335 336 337 337 337 338 338 337 337 336 336 336 337 336 335 335 335 335 335 335 335 335 333 334 334 334 333 332 329 326 324 323 320 319 319 320 319 318 317 315 313 312 313 314 314 314 313 313 312 311 310 310 311 310 310 310 310 310 309 309 309 309 308 308 307 306 306 305 306 306 306 305 304
305 308 313 318 320 321 320 317 316 319 325 330 334 336 337 338 338 338 337 337 338 336 336 336 336 335 335 336 336 335 335 336 334 333 332 332 333 334 332 331 329 327 325 323 321 320 319 318 318 317 315 314 312 312 313 314 314 313 313 312 311 310 310 309 309 309 310 309 309 310 309 309 310 308 307 306 307 306 305 304 305 306 306 306 305
306 308 312 317 322 323 321 320 318 319 323 328 332 334 336 336 337 338 337 337 337 336 335 335 335 334 335 336 336 335 334 333 333 332 331 331 331 332 332 330 328 326 323 322 321 320 318 318 316 315 314 313 312 313 310 307 308 312 312 311 311 311 310 309 309 309 309 309 309 309 310 307 306 305 302 300 299 301 304 305 305 307 306 306 305
307 310 314 318 323 324 323 320 320 321 324 328 332 334 336 337 337 337 337 337 337 336 335 335 334 335 335 336 336 334 333 331 331 331 331 330 330 331 331 329 328 325 322 320 320 318 318 317 316 314 313 312 312 312 302 299 300 303 310 311 311 310 310 310 309 309 308 309 309 308 309 307 306 304 303 297 297 296 297 298 300 303 307 307 305
307 311 315 320 324 325 324 323 323 324 326 329 332 334 335 336 336 336 336 337 337 336 335 335 335 335 334 335 334 333 331 331 331 330 330 329 329 329 329 328 326 324 321 320 319 317 317 317 316 314 313 312 312 306 297 297 298 299 304 310 311 310 310 310 309 309 309 309 308 308 309 309 309 308 306 302 299 296 295 295 295 296 296 297 299
307 310 315 320 325 327 327 327 327 327 328 330 333 334 334 335 335 336 337 336 335 335 334 334 335 334 334 334 333 332 331 330 330 330 330 328 327 326 327 326 325 325 321 318 318 317 317 317 316 314 313 312 313 300 296 296 297 297 299 306 310 311 310 310 310 309 308 308 308 307 308 310 310 307 305 305 304 301 297 295 295 296 295 294 293
307 311 315 320 326 328 329 329 329 330 331 333 335 335 336 337 337 337 336 335 335 334 334 333 334 334 334 334 333 331 330 330 329 329 328 327 326 325 326 326 325 324 319 318 318 318 318 316 315 314 313 313 313 300 296 296 296 296 296 301 310 310 310 310 309 309 309 309 308 307 306 308 309 307 307 306 305 303 302 301 301 302 302 301 296
309 312 316 323 329 329 330 331 330 331 333 334 334 336 337 337 337 336 336 336 335 335 334 333 333 334 334 333 332 331 330 329 329 329 328 326 326 326 327 326 324 322 319 317 317 318 318 316 315 314 314 312 312 297 295 295 295 295 295 300 311 310 310 310 310 310 310 309 309 308 308 308 308 307 306 305 304 303 303 303 302 302 303 305 306
310 312 316 321 328 329 331 332 332 332 332 333 334 335 335 335 336 335 335 335 335 334 334 334 333 333 334 333 332 331 329 329 328 328 327 326 326 327 326 325 323 320 320 319 319 319 317 316 316 315 314 312 310 295 295 295 295 295 295 307 310 309 309 309 310 310 309 309 309 309 308 308 307 307 302 296 300 304 302 302 301 302 302 304 307
312 313 314 319 326 328 330 332 332 332 332 333 334 335 335 335 334 334 334 334 334 333 333 333 332 334 333 333 332 330 329 328 328 327 327 326 326 326 326 324 321 319 318 317 317 318 319 316 314 313 313 312 306 296 294 294 294 294 298 308 308 307 308 308 309 309 308 308 308 308 308 307 306 306 298 293 294 299 303 302 301 301 301 302 304
314 315 315 318 323 327 330 330 331 332 333 334 335 334 334 334 333 334 334 334 333 333 333 333 333 334 333 333 332 330 329 328 328 327 326 325 326 326 325 322 321 319 317 318 318 318 319 317 314 313 311 308 305 298 294 294 294 294 301 307 307 307 307 307 308 308 308 307 307 307 307 307 305 305 293 292 292 299 303 302 301 300 300 301 304
315 314 314 315 319 322 326 330 331 331 332 334 334 334 333 332 332 332 333 332 332 333 333 333 334 334 334 333 331 330 329 328 328 327 327 325 325 324 325 324 323 320 318 319 318 318 318 317 315 311 308 309 307 300 294 294 294 294 301 308 306 306 306 307 307 306 307 306 306 306 305 305 306 303 291 292 292 299 303 302 301 301 300 301 303
316 317 316 314 314 316 324 328 329 331 333 334 334 333 332 331 331 332 331 331 332 334 334 335 335 334 333 332 331 329 329 328 328 327 327 326 325 325 323 322 323 322 319 319 319 317 313 313 312 311 310 311 307 302 298 294 294 294 298 307 307 306 305 306 306 306 305 306 305 306 303 295 295 293 292 291 291 294 302 303 303 302 301 300 303
316 316 312 314 313 315 320 327 331 332 333 334 333 332 330 330 330 330 329 331 333 335 335 335 334 332 331 331 331 330 329 329 328 328 327 325 325 324 323 321 321 321 320 318 317 317 314 313 313 313 312 311 308 304 300 293 294 295 296 301 306 306 307 306 306 305 305 305 304 305 306 297 292 292 292 291 291 292 296 305 304 303 304 304 302
316 314 313 313 314 320 323 327 331 332 333 333 333 331 330 329 329 329 330 333 334 334 334 333 332 332 331 331 330 330 330 329 329 328 327 326 326 326 324 323 321 317 315 315 315 315 315 314 313 311 311 311 308 303 303 294 294 294 296 298 305 307 307 307 306 306 305 305 305 305 307 299 291 291 291 292 291 292 292 303 304 296 293 289 300
315 317 318 315 315 320 323 327 330 331 332 333 333 331 330 329 329 331 334 334 334 334 333 332 331 331 329 330 330 329 329 330 328 327 327 327 326 325 323 319 317 315 314 312 312 314 315 313 310 309 311 311 308 304 298 298 294 294 295 296 298 302 297 307 306 305 305 305 306 307 306 298 292 291 291 291 292 291 292 299 294 291 290 288 295
316 317 318 319 316 321 325 329 329 330 332 333 332 330 329 329 331 334 335 334 334 333 333 331 329 329 328 328 329 329 329 329 328 327 328 326 324 324 321 318 316 313 312 310 310 312 313 311 308 306 307 309 308 306 298 296 296 293 294 295 295 296 296 305 307 307 307 307 307 308 305 295 292 292 291 291 292 292 298 293 291 290 289 291 298
314 316 318 318 317 319 325 326 328 330 331 332 333 331 329 329 333 335 334 334 333 332 331 329 329 330 329 330 330 329 328 329 328 327 326 324 324 323 320 318 315 313 312 310 310 311 311 309 307 305 305 305 306 306 303 297 294 293 294 294 294 294 294 296 305 307 308 308 302 298 296 294 293 292 291 291 291 291 291 292 291 289 292 298 300
316 318 319 319 320 321 321 324 326 329 329 331 332 332 330 330 334 334 335 335 333 331 329 329 329 329 329 330 329 330 330 331 329 326 324 325 324 322 319 316 314 313 312 311 310 310 310 309 307 307 305 304 304 304 302 300 296 295 295 294 294 294 295 296 301 305 299 298 295 295 294 293 293 294 298 300 301 301 291 291 290 291 298 299 300
315 319 317 321 320 320 320 322 325 328 329 330 331 332 333 333 333 334 334 334 332 330 327 328 328 329 330 330 328 329 329 330 329 323 322 321 323 322 319 315 314 313 311 311 310 308 307 306 306 307 306 304 304 304 303 301 300 300 300 299 297 299 295 295 301 307 300 303 299 298 299 295 297 294 296 296 298 296 296 295 296 297 299 300 300
317 319 321 323 322 321 322 322 323 327 328 328 330 331 332 333 333 333 333 333 329 328 327 327 328 328 326 326 328 310 320 326 322 319 318 319 320 320 318 314 312 312 311 310 308 306 305 304 305 305 304 303 303 304 304 302 302 301 301 302 302 303 302 303 304 307 306 305 303 296 296 301 302 301 301 303 303 303 301 299 300 300 300 300 299
316 318 318 321 321 319 318 320 322 325 327 327 328 330 332 331 332 332 333 331 329 327 327 328 329 327 325 324 326 325 325 325 320 317 317 318 317 318 318 316 316 315 313 311 309 308 307 307 308 308 306 305 304 304 305 299 302 298 299 302 302 303 304 304 302 298 305 305 304 302 302 303 303 303 298 303 303 302 301 301 301 301 300 300 299
315 317 318 319 319 320 319 318 319 322 325 326 327 328 329 330 330 331 331 330 327 326 326 326 326 325 325 323 325 325 325 321 316 312 309 307 295 300 310 316 313 306 301 301 302 308 309 311 311 311 310 307 306 307 299 296 296 295 295 297 297 298 297 301 297 294 300 304 304 303 304 302 303 304 302 301 302 302 301 299 300 295 299 300 299
314 314 315 316 318 319 320 320 320 321 322 323 323 325 326 327 329 329 329 327 325 321 321 321 321 323 321 322 322 320 315 311 310 309 310 309 307 302 294 299 302 298 299 299 301 300 300 302 310 310 307 296 298 296 295 295 294 294 294 294 294 295 295 294 292 298 301 301 300 301 301 303 301 304 301 302 301 301 297 299 299 299 299 300 296
Wind_Speed
13 14 12 10 10 10 10 11 12 12 12 14 14 15 14 13 13 15 14 15 13 13 13 12 12 11 10 11 10 10 9 9 8 7 6 6 7 7 7 6 7 8 9 8 8 7 6 6 6 6 7 7 7 8 6 8 7 7 6 5 8 7 5 6 8 9 10 7 5 5 4 3 2 3 4 4 4 4 4 4 4 4 4 4 4
10 5 5 8 9 11 12 12 14 15 15 16 16 16 15 15 15 14 13 15 14 13 11 12 11 10 9 10 10 9 10 10 9 7 7 6 7 7 7 7 8 9 9 9 8 8 7 6 7 7 8 8 7 6 6 7 7 7 7 6 4 7 6 8 8 9 6 8 8 5 4 3 2 2 3 3 4 4 4 4 4 4 5 4 4
8 9 8 11 13 12 12 12 14 16 16 17 15 15 15 15 14 13 12 14 15 14 13 12 11 10 10 8 10 9 9 8 7 7 6 7 7 7 7 8 10 9 9 9 9 8 8 7 7 7 8 8 8 7 7 8 7 9 9 7 6 3 5 6 9 4 4 6 6 7 5 5 3 2 2 3 4 4 4 5 5 5 6 5 5
13 12 13 13 14 14 14 13 14 13 12 13 13 15 13 14 15 14 13 14 14 14 12 12 11 10 10 8 9 10 8 6 5 6 6 7 9 9 9 9 11 10 10 10 9 9 9 8 8 8 8 8 7 7 9 9 7 8 8 7 8 7 5 7 5 1 3 9 7 4 4 4 4 6 6 4 4 5 6 6 5 5 5 5 4
15 15 13 12 13 14 16 17 14 15 15 16 15 15 12 17 16 16 13 14 12 13 14 13 12 11 10 8 8 8 4 6 7 8 8 9 9 10 10 11 11 10 10 10 10 9 9 9 8 7 8 9 7 8 8 8 8 8 9 8 9 8 7 6 6 3 6 2 3 5 3 4 5 3 7 4 5 6 7 6 5 6 6 6 5
17 16 16 16 17 16 16 15 15 15 15 15 15 17 14 12 14 16 13 14 14 14 16 14 14 12 11 11 12 12 12 12 14 14 11 11 10 9 10 11 11 10 10 10 11 10 10 9 7 7 7 6 6 7 7 6 7 8 8 8 9 7 7 7 7 4 4 2 3 3 3 3 3 5 6 4 5 5 5 7 6 6 6 6 6
12 11 10 12 13 14 15 15 16 17 17 15 15 15 15 14 15 16 15 14 14 14 18 15 15 14 15 15 14 13 14 12 11 11 12 11 9 10 10 11 11 10 10 10 11 10 9 7 8 7 7 7 6 6 6 8 7 8 7 7 7 6 6 7 9 7 3 4 3 2 2 1 4 8 5 4 5 5 5 6 6 6 5 6 6
13 15 13 13 14 15 16 17 14 16 16 13 13 13 17 17 17 17 13 14 15 15 17 16 16 16 16 16 15 15 15 13 12 11 10 9 10 11 10 9 10 10 10 10 11 10 8 8 8 7 7 7 7 7 7 7 6 5 7 6 5 5 7 7 8 8 9 7 6 4 2 2 4 1 5 6 4 5 7 5 5 5 4 4 3
15 12 13 11 13 15 14 14 16 13 11 12 14 15 15 14 14 14 14 14 14 17 17 19 15 14 16 15 15 13 14 11 8 8 10 11 11 10 10 9 9 10 10 11 11 10 8 8 9 8 8 8 7 7 7 7 8 7 7 6 6 6 6 6 6 7 8 7 7 5 4 4 4 1 1 2 5 7 4 8 7 6 4 4 3
11 13 13 12 13 13 14 14 14 12 11 11 11 9 10 11 14 16 16 14 14 17 16 19 19 15 17 18 18 15 13 9 8 11 11 10 11 11 10 9 8 9 10 11 10 9 8 8 9 10 9 8 8 8 6 6 6 6 7 7 7 7 5 6 7 6 7 6 7 6 7 4 4 4 4 4 1 4 6 5 8 9 8 6 4
11 12 14 14 13 13 12 13 14 11 9 11 12 12 12 13 15 18 18 14 15 16 18 18 19 19 18 18 18 17 14 11 12 12 12 11 11 11 10 9 9 9 9 9 10 8 8 8 8 9 8 7 7 7 7 7 6 6 5 6 6 8 6 7 6 6 5 6 8 7 8 8 7 7 6 6 6 4 4 4 5 7 6 6 4
12 12 13 13 11 11 11 12 10 11 11 12 12 13 14 15 16 18 17 19 17 16 17 18 19 20 18 16 19 19 14 12 15 15 14 13 12 11 10 9 8 9 9 9 10 8 8 7 8 8 7 7 7 6 6 6 5 4 4 5 5 6 5 6 6 7 7 6 7 7 8 7 8 8 7 6 6 7 6 5 4 5 3 4 6
11 12 11 10 11 11 12 12 12 13 14 16 16 16 16 16 18 19 19 19 17 18 20 19 20 18 19 19 19 17 14 16 16 15 15 13 12 12 11 10 9 9 10 11 11 10 8 8 8 7 6 6 6 6 5 5 5 5 5 6 5 6 6 7 6 7 7 7 7 7 7 7 8 6 4 5 5 5 6 4 3 3 4 5 6
8 10 11 11 12 11 12 12 13 13 14 16 17 16 15 15 18 20 20 19 17 18 19 18 20 19 19 19 18 17 14 15 15 16 15 13 12 13 13 12 11 12 12 12 9 10 9 8 8 7 7 6 6 6 5 5 5 5 5 5 5 4 4 6 6 7 6 7 5 5 6 6 6 3 4 4 4 5 6 6 5 3 3 5 5
8 10 12 13 12 13 11 12 13 13 15 16 15 16 15 15 17 19 18 18 19 20 20 19 18 21 19 19 18 17 14 15 16 14 13 15 13 13 13 12 11 12 12 9 9 9 8 8 8 8 7 7 6 6 5 5 5 4 4 4 3 3 3 4 4 5 5 6 5 5 5 4 3 3 3 5 5 6 6 6 7 7 4 4 5
11 11 12 14 14 14 13 12 13 12 15 14 16 15 15 16 18 20 21 20 21 20 20 19 18 16 20 20 18 14 11 14 15 14 12 14 14 14 13 12 12 11 8 8 9 9 10 10 9 8 7 7 7 7 7 6 6 5 4 4 4 2 3 4 4 4 5 5 5 4 4 4 2 2 3 3 3 3 4 5 7 7 7 6 5
10 11 12 13 14 14 14 15 13 13 13 15 16 17 19 18 18 20 20 18 19 19 19 19 19 20 20 17 16 15 14 15 17 17 14 14 14 13 10 12 11 9 7 8 10 9 9 9 9 8 7 7 7 7 7 6 6 5 5 5 4 4 3 4 3 4 4 4 3 5 4 3 3 2 2 2 2 2 3 5 7 7 7 7 7
12 13 13 13 14 16 16 15 16 15 16 17 18 17 17 18 20 21 19 20 19 19 19 18 21 20 16 17 18 16 15 15 17 16 16 15 13 9 8 8 10 9 8 7 9 10 8 9 8 8 7 7 7 7 7 7 6 5 5 4 4 4 4 3 3 3 4 4 4 4 4 4 3 3 3 2 2 2 3 4 6 5 6 8 6
9 11 11 12 12 13 14 15 16 16 15 16 17 18 16 16 17 17 20 21 21 17 16 16 19 16 14 18 18 17 15 17 18 16 16 15 14 11 10 10 9 9 8 8 9 9 8 8 8 8 7 8 7 7 7 6 7 5 5 4 4 5 4 4 3 4 4 5 6 6 4 4 4 4 3 3 2 2 2 3 3 2 4 6 6
9 9 9 11 13 14 15 16 17 17 17 15 16 15 17 17 16 16 15 14 15 17 17 21 22 17 13 15 16 16 16 18 18 17 16 17 15 13 11 11 11 10 9 10 10 10 10 10 8 8 8 8 8 7 7 7 6 6 6 5 5 6 6 5 5 4 4 5 7 7 6 5 5 4 4 4 3 2 2 3 3 4 3 3 5
8 9 10 11 12 13 14 14 15 15 15 15 15 17 16 14 16 16 17 18 18 17 21 22 20 20 17 21 22 17 19 20 19 18 18 17 14 12 12 11 10 10 10 11 11 11 11 10 10 10 10 9 9 8 7 7 7 7 5 6 6 7 7 5 6 6 5 6 6 7 6 6 5 6 5 4 4 4 3 3 2 3 4 4 5
8 10 11 10 11 12 12 12 12 12 13 14 12 11 13 15 15 15 15 16 18 18 18 20 21 21 22 20 19 17 19 19 19 18 19 17 15 11 11 11 12 11 12 12 12 10 10 11 10 10 10 10 10 9 8 7 7 7 6 4 6 7 7 7 6 7 7 5 6 7 7 6 5 6 6 6 5 5 4 4 4 4 4 5 4
9 10 10 11 11 12 12 15 15 16 15 15 14 15 15 16 16 16 17 18 18 19 20 21 20 20 22 20 20 19 20 20 20 18 19 18 15 12 12 12 11 10 11 11 12 11 12 11 10 10 10 10 10 9 8 8 7 8 8 6 6 7 7 7 7 7 8 6 7 7 7 6 5 6 5 5 4 4 4 4 4 3 4 5 4
8 8 9 10 11 11 11 13 14 14 13 14 13 14 14 15 16 16 18 19 18 16 18 21 21 21 22 20 21 20 21 20 20 18 20 18 16 12 12 12 12 10 11 10 10 12 11 12 11 11 11 10 10 8 8 8 9 9 8 8 8 7 7 7 8 8 8 8 8 7 7 7 7 7 6 5 4 4 4 4 5 4 4 5 4
11 10 9 9 10 12 13 14 15 15 14 14 15 16 16 16 16 17 17 18 17 16 18 19 21 22 21 21 21 20 20 21 21 18 20 19 16 13 12 13 12 11 12 11 10 10 11 12 11 12 12 11 10 10 9 9 8 8 9 8 8 8 7 8 7 8 8 8 8 8 8 8 8 7 6 5 5 5 4 4 4 4 4 4 4
13 13 11 11 10 10 12 12 12 13 14 14 15 16 16 17 18 18 17 16 17 17 21 22 20 21 20 22 21 20 22 23 22 19 19 18 17 14 13 11 12 13 11 11 12 11 11 12 12 12 12 11 10 10 10 10 10 9 8 7 7 8 8 8 7 8 8 8 8 8 8 8 8 8 7 6 6 6 4 4 5 5 5 5 5
15 14 12 10 11 12 13 13 12 13 14 14 16 17 16 17 18 18 17 16 17 20 21 21 21 22 20 21 22 22 21 20 19 19 17 17 17 15 14 13 12 13 12 12 12 12 11 12 12 11 11 11 11 10 9 9 9 9 9 8 7 8 8 7 7 8 8 8 8 8 8 8 8 8 8 7 7 6 5 5 5 5 5 6 5
12 12 12 11 11 11 11 12 13 14 15 15 15 16 17 17 18 18 17 16 14 19 22 21 21 21 21 22 21 21 20 19 18 15 17 17 16 17 15 13 13 13 13 13 13 13 11 11 11 11 10 10 9 9 9 9 9 9 8 8 8 8 8 7 7 7 7 7 8 7 8 8 8 7 8 7 7 6 5 6 5 5 5 6 5
16 14 11 10 10 9 10 11 12 14 16 17 15 15 14 14 14 14 16 17 16 21 23 22 20 22 20 20 17 16 18 15 17 17 12 16 16 16 14 13 12 12 11 13 13 13 12 12 11 10 11 9 9 9 8 9 9 10 9 9 9 9 9 8 8 7 7 7 7 7 7 7 6 6 8 8 8 7 6 6 6 6 6 6 6
14 14 13 11 10 10 10 10 12 15 17 16 15 15 16 16 15 15 19 20 19 21 23 22 22 23 20 18 16 15 17 17 13 17 15 13 12 14 14 13 13 13 11 11 12 12 13 13 13 11 10 8 7 6 10 15 13 10 10 8 8 9 10 9 9 8 7 8 8 6 5 7 7 8 9 9 8 8 7 7 8 7 7 6 6
14 12 13 12 11 11 10 10 12 14 15 14 14 14 14 15 16 16 18 20 20 21 22 22 23 22 18 16 14 17 13 12 14 19 13 13 14 12 13 13 13 12 12 11 11 13 12 11 13 13 12 9 8 8 16 16 15 14 11 10 10 9 10 9 9 9 9 8 6 6 6 7 8 8 8 9 9 8 6 6 7 6 5 6 7
14 13 13 12 11 11 10 10 11 13 14 14 13 14 14 15 15 19 19 19 18 20 21 21 20 16 18 17 17 17 18 14 16 19 16 12 11 12 13 12 12 12 10 11 12 13 12 12 11 12 11 10 9 13 18 17 16 16 12 10 9 9 9 9 9 10 8 8 8 7 6 6 7 8 8 7 7 7 8 9 8 6 4 1 3
14 14 14 12 11 11 10 10 10 10 12 13 13 13 15 15 18 19 17 18 19 18 19 17 16 16 15 16 16 17 18 16 19 18 13 11 11 12 12 13 13 11 10 12 14 13 12 12 12 13 12 10 9 16 18 18 17 17 15 12 9 9 10 9 9 10 10 9 8 8 7 6 6 10 9 8 8 7 7 9 9 6 3 3 2
15 14 13 13 9 8 9 10 10 10 11 11 13 14 13 14 15 17 18 17 19 19 18 16 15 17 15 11 13 16 17 16 16 14 11 12 12 13 12 11 11 10 10 11 12 14 13 13 13 12 11 10 10 17 19 19 17 17 16 12 9 10 9 10 10 10 9 10 10 9 9 8 7 8 8 9 9 8 8 6 6 5 5 5 4
12 13 12 11 10 9 9 9 9 9 9 10 11 12 12 14 15 17 18 20 20 18 17 15 15 14 12 12 11 15 15 12 13 13 14 12 15 17 17 12 11 12 13 13 13 13 12 13 13 12 11 10 9 19 19 19 18 18 17 11 8 8 8 9 9 9 9 10 10 9 10 9 9 9 7 9 9 9 9 7 6 5 5 6 6
11 11 12 11 9 9 9 9 7 6 8 10 11 12 15 16 16 16 17 18 18 18 14 13 13 14 13 14 14 16 15 15 16 16 16 16 15 19 19 12 11 8 9 8 10 12 13 13 13 13 11 11 9 21 20 20 19 18 18 9 8 9 9 9 9 9 9 9 10 9 9 9 9 8 9 12 10 8 8 7 6 6 6 5 5
13 13 14 13 10 9 10 8 5 6 8 10 11 14 15 15 16 14 17 18 18 18 15 15 15 14 14 14 15 15 15 15 16 16 15 11 12 14 17 12 11 12 12 9 11 12 11 12 12 10 10 9 9 17 20 20 19 19 15 9 9 8 8 9 9 9 9 8 8 10 9 8 9 9 12 13 12 11 9 8 7 7 6 5 7
12 12 12 13 10 8 8 8 8 8 9 10 12 14 14 15 16 16 13 15 19 17 14 15 14 13 13 14 14 15 15 15 15 16 16 15 12 14 12 11 13 12 12 10 11 11 11 11 13 13 13 14 10 15 22 21 21 21 16 11 10 9 9 9 8 8 7 7 8 11 11 9 9 9 14 14 14 11 9 8 8 8 7 7 7
12 11 12 13 8 7 9 9 9 9 10 12 13 15 15 15 15 14 12 12 15 13 13 14 12 13 14 13 13 14 15 15 15 15 14 14 14 14 12 12 10 11 13 12 10 11 9 9 9 12 18 14 8 12 18 20 22 22 16 9 10 9 9 9 9 8 7 7 7 9 12 10 11 11 16 15 15 12 9 9 9 8 8 8 7
15 14 11 11 10 7 7 9 11 12 11 12 13 14 14 13 11 11 13 13 12 13 18 14 11 12 12 12 13 14 15 15 16 14 13 15 13 10 9 12 13 12 10 9 8 8 11 11 11 13 11 11 11 11 16 21 21 21 18 10 9 9 10 10 9 9 8 7 7 8 10 12 12 15 17 16 16 14 10 9 8 8 7 7 6
16 15 15 11 8 7 8 9 9 10 10 12 13 14 12 11 12 12 13 11 11 11 11 10 11 12 13 13 13 15 16 15 15 14 13 10 11 14 15 13 11 9 10 13 14 12 11 11 10 8 8 9 9 12 14 19 20 22 19 14 9 10 10 10 9 9 9 9 8 8 8 12 13 14 16 16 16 15 12 8 9 8 8 4 4
14 15 14 11 9 7 6 7 7 9 11 12 13 13 14 12 12 14 14 11 11 10 10 11 12 13 14 14 15 14 15 13 13 14 14 12 11 11 13 17 12 11 12 13 14 14 14 11 9 9 9 9 11 17 14 18 19 20 21 19 11 10 11 10 9 8 8 8 8 8 8 12 15 13 14 16 16 15 14 8 9 10 7 9 4
15 14 12 7 8 7 7 8 7 9 11 12 14 15 15 13 15 17 15 13 12 11 11 11 12 12 12 14 14 15 13 11 12 13 14 17 16 16 13 10 12 13 13 12 12 15 14 14 11 8 8 9 9 10 17 15 19 19 19 18 16 12 13 10 10 10 10 9 8 8 9 13 16 14 14 15 15 15 11 10 11 9 9 8 4
12 13 14 9 8 8 6 7 6 9 10 12 14 14 14 15 19 17 16 14 12 14 12 11 11 11 11 12 13 14 13 11 13 13 13 16 15 16 13 12 12 12 12 12 11 12 14 14 13 11 11 10 9 8 13 18 17 21 19 18 16 16 16 11 9 8 8 8 8 9 9 15 15 15 15 15 15 13 10 13 11 11 10 8 5
11 12 11 8 8 10 6 6 7 10 11 12 13 15 15 17 16 14 16 16 15 14 12 11 12 13 15 15 15 13 14 13 13 15 14 15 17 17 15 13 14 13 13 13 13 11 14 13 13 11 11 10 11 11 9 13 19 19 20 19 17 17 16 15 10 8 8 9 10 13 14 16 16 16 16 15 12 13 15 14 12 11 10 6 7
8 9 7 6 6 7 5 7 8 10 12 13 14 15 17 16 14 13 14 14 14 12 12 13 13 13 14 13 15 17 18 18 14 14 14 16 17 15 12 11 12 12 13 14 15 11 10 11 12 11 12 11 10 10 9 10 12 14 15 18 19 17 17 16 14 10 12 12 13 13 15 15 15 13 10 7 8 9 14 11 10 11 7 7 7
9 8 6 5 4 5 7 6 7 8 9 11 13 13 14 13 13 13 13 13 13 12 12 12 14 15 14 13 15 15 15 15 15 12 11 8 10 13 11 11 12 12 10 10 10 11 10 10 11 12 12 13 12 11 9 8 8 10 9 11 12 11 14 13 11 7 8 7 10 11 9 11 9 13 10 7 8 7 7 6 6 7 8 7 7
8 7 5 6 3 3 6 6 5 5 7 9 10 12 12 11 12 13 14 13 11 11 12 13 13 11 10 11 13 13 14 10 10 11 11 11 9 10 10 10 12 12 12 10 7 9 11 12 12 10 10 12 12 12 12 13 13 12 11 11 11 10 10 9 11 9 8 8 8 7 8 7 6 6 6 5 6 6 7 8 8 8 8 7 6
7 7 6 6 6 5 2 1 3 3 5 7 10 10 10 11 12 13 13 14 13 13 13 13 13 11 9 10 11 9 11 9 7 6 4 6 8 9 9 7 8 10 13 13 11 10 10 12 13 14 16 16 16 14 14 14 17 19 17 12 11 11 10 9 11 11 8 7 7 7 8 8 8 7 5 7 7 6 6 7 7 7 7 7 6
6 5 6 6 6 5 5 4 2 5 5 3 6 8 9 10 12 12 13 13 12 12 12 11 10 11 11 11 10 10 10 8 9 8 9 8 7 9 8 12 13 15 14 15 16 15 16 13 12 10 12 14 14 14 15 20 18 20 21 22 20 18 15 11 11 16 11 8 9 9 9 8 8 8 7 6 7 7 7 6 6 7 7 7 7
7 8 9 8 7 6 5 6 6 5 4 3 4 5 7 7 7 7 10 10 11 10 9 9 10 11 11 10 8 8 8 9 12 13 13 13 9 6 10 5 6 11 15 16 16 9 12 12 12 11 7 7 7 10 16 17 17 19 19 18 17 18 17 14 15 12 8 7 6 7 7 8 8 8 7 8 7 6 5 5 6 7 8 8 7
Wind_Direction
217 213 206 192 184 174 172 174 172 175 176 176 178 184 186 185 185 194 195 194 195 197 201 201 201 200 202 202 203 200 203 201 198 199 193 193 186 186 181 180 178 181 192 184 189 188 187 182 180 182 187 197 199 196 176 175 159 151 141 140 141 133 129 137 133 130 125 104 86 89 82 79 97 136 157 162 160 160 164 171 158 159 149 145 141
220 205 172 169 179 174 174 178 174 177 188 181 184 183 182 187 191 188 187 193 196 196 195 202 205 203 196 201 200 199 199 199 197 193 191 184 185 188 187 184 186 190 187 186 189 188 184 184 187 184 189 198 198 186 168 160 148 147 146 138 151 149 148 160 152 147 147 150 148 142 121 118 103 145 176 177 179 178 182 181 172 171 166 158 155
207 205 190 191 182 175 179 183 186 191 185 182 182 176 180 186 192 188 187 191 194 193 196 201 203 204 201 199 203 203 207 200 187 184 179 186 188 196 195 200 196 193 184 182 186 191 192 187 188 185 191 193 188 181 178 177 163 160 163 157 149 134 137 167 172 226 162 144 143 145 166 171 164 185 184 186 190 194 194 195 186 186 182 175 171
212 195 193 190 185 181 184 186 190 186 175 180 181 185 187 189 186 188 190 193 192 193 194 196 199 200 204 206 205 205 201 182 183 175 184 184 197 203 206 200 195 192 184 183 189 193 192 196 193 190 191 193 187 177 189 185 165 166 172 164 153 151 165 177 198 231 169 144 163 215 158 206 189 208 196 185 193 200 205 206 194 200 195 181 186
211 203 192 184 184 184 188 191 184 185 185 188 186 186 190 194 183 181 187 192 191 190 192 191 194 198 202 202 198 195 167 181 185 200 198 201 202 200 204 199 195 190 183 186 194 191 196 197 187 178 186 190 185 187 189 179 176 175 173 168 176 166 168 170 190 206 200 279 166 135 142 207 240 137 174 178 187 203 207 211 204 209 205 196 202
206 203 192 189 190 192 194 189 184 187 190 192 188 191 186 184 183 179 182 186 192 188 190 191 193 195 195 198 198 199 203 199 202 200 192 195 200 197 199 197 194 187 182 187 196 196 198 192 180 177 173 173 180 190 190 169 174 179 180 181 185 185 168 168 179 199 221 233 294 318 327 302 169 143 173 182 175 213 199 203 207 209 213 208 212
230 232 202 191 193 192 193 188 188 191 199 192 187 189 189 189 188 185 182 183 188 191 192 193 195 200 201 205 206 206 209 210 206 201 196 196 194 193 194 195 192 183 182 188 197 197 190 177 179 183 178 177 175 182 178 182 183 185 179 189 193 177 166 177 187 184 190 229 222 299 303 291 142 146 202 130 182 187 213 198 207 204 205 218 211
214 217 212 196 195 197 196 196 192 199 197 183 181 186 190 190 186 188 187 178 183 187 190 194 197 200 203 209 211 212 212 210 199 191 185 186 191 193 190 188 190 188 183 190 199 194 179 175 178 180 181 180 178 187 184 184 181 181 184 194 188 182 185 196 191 182 190 198 194 208 193 148 157 293 183 215 253 182 188 198 205 192 199 211 218
212 214 212 196 197 201 201 200 204 204 191 181 186 191 190 189 187 187 191 183 178 180 189 197 198 196 203 208 210 212 211 206 184 187 193 194 194 192 191 186 187 192 191 193 197 192 175 178 178 180 182 180 185 189 187 181 184 179 183 191 197 196 198 206 198 195 201 204 170 201 196 185 180 198 202 212 238 252 206 179 189 179 207 196 174
220 221 219 208 205 204 204 204 201 195 194 197 193 176 175 181 188 190 196 195 183 178 183 193 199 198 204 208 209 208 207 195 177 195 194 190 198 194 189 185 183 187 194 198 196 185 178 177 181 183 181 178 188 190 180 175 182 189 191 195 196 200 198 205 213 209 203 211 197 183 194 176 200 199 197 195 208 257 269 191 180 178 194 178 151
228 222 218 216 208 208 200 201 202 198 199 190 186 183 182 189 192 194 197 194 191 182 181 190 200 203 207 205 206 206 199 186 192 193 193 191 198 193 189 187 185 187 189 192 194 179 179 180 184 182 177 172 182 178 183 189 186 189 191 197 202 207 202 203 211 218 211 213 207 206 207 201 209 213 208 203 224 209 217 214 182 195 196 155 151
229 229 225 218 210 208 200 207 198 191 185 192 193 186 189 189 190 194 196 198 194 187 184 190 200 206 207 204 208 208 190 188 195 196 191 191 193 190 187 186 188 190 191 191 191 182 175 180 179 176 172 174 177 178 180 187 176 179 180 194 204 207 208 203 209 210 209 218 211 214 221 220 225 237 236 209 218 243 242 245 183 150 150 126 127
224 226 227 222 216 208 199 202 189 192 189 192 195 193 193 192 190 192 197 194 191 191 193 189 196 203 205 205 207 206 198 195 200 199 191 191 191 185 183 189 183 186 194 195 191 174 176 174 176 176 170 173 168 171 170 169 168 179 185 192 194 194 200 202 207 209 204 213 212 212 223 223 230 231 237 222 226 249 244 215 114 158 177 145 148
222 226 228 226 220 213 208 205 197 193 189 191 195 191 189 190 189 194 199 193 190 193 194 190 194 200 203 206 205 205 200 196 204 202 194 193 190 186 186 187 188 195 195 199 170 175 181 174 167 170 168 163 162 166 163 169 170 182 177 188 188 191 188 199 212 209 208 218 221 210 212 222 227 210 222 214 206 207 217 212 143 138 148 153 155
223 221 224 224 222 216 212 208 206 197 194 196 194 192 189 190 191 196 198 192 190 194 197 195 197 199 200 203 202 203 199 200 206 205 188 194 191 191 192 195 194 199 202 185 167 173 165 165 170 167 162 158 158 159 160 159 163 165 166 167 165 164 180 194 206 201 206 209 211 219 210 219 219 201 209 223 217 216 220 187 159 153 153 165 175
225 223 220 221 221 217 214 211 208 201 200 198 195 190 191 195 194 198 197 191 191 192 196 195 195 187 198 198 196 190 190 201 207 203 192 194 192 195 193 190 199 196 193 166 171 172 171 170 169 168 158 159 162 162 162 162 160 160 152 160 162 149 172 190 198 198 210 199 202 198 206 205 179 184 206 207 216 216 218 179 188 188 174 179 187
223 225 224 218 219 220 216 214 208 200 200 200 196 192 194 194 196 199 198 193 193 193 196 196 195 193 192 188 188 189 189 193 204 202 190 193 196 194 178 181 177 177 174 168 168 175 170 167 165 158 159 158 158 161 162 157 156 159 160 161 163 160 176 186 181 197 181 177 183 183 198 161 159 150 167 173 183 197 211 204 207 209 204 204 182
219 223 226 225 222 219 218 215 211 203 203 203 200 199 198 197 199 198 193 192 193 194 194 192 197 192 186 189 191 189 191 195 203 200 192 196 194 183 174 167 175 175 173 166 168 169 168 163 158 156 157 159 160 160 161 155 155 153 155 162 152 155 166 161 174 179 162 167 161 166 163 154 136 156 136 134 153 180 189 201 213 223 224 228 203
227 219 221 229 229 227 222 219 214 209 206 204 200 197 200 202 202 197 193 195 194 193 193 194 198 193 189 191 188 189 190 199 203 198 193 196 188 186 180 176 165 168 168 166 168 168 165 167 160 156 157 160 159 157 155 156 159 150 155 154 153 166 170 168 159 162 157 165 161 156 151 136 140 128 125 123 126 161 174 180 193 205 221 240 218
248 244 234 226 225 225 224 220 217 211 211 210 206 201 202 201 196 198 197 191 189 191 191 200 200 192 185 187 190 189 188 198 202 198 194 198 193 181 173 170 171 167 174 169 171 170 171 167 166 158 157 159 161 158 161 156 158 158 158 163 162 170 173 167 159 162 159 170 159 156 154 146 143 138 131 127 128 125 151 170 175 185 186 212 212
256 248 238 232 231 231 229 226 223 218 210 210 206 202 199 194 197 195 189 187 186 184 193 200 197 197 190 196 197 188 190 198 198 196 196 198 192 176 177 174 162 172 167 171 174 174 174 169 165 162 163 163 163 160 161 158 160 156 159 159 159 173 174 163 159 158 165 167 164 155 148 143 150 145 138 138 134 131 137 143 155 170 173 179 191
262 261 257 251 243 234 232 229 225 217 212 210 205 193 191 195 195 193 196 197 197 195 196 198 199 199 198 194 193 192 194 194 196 195 197 197 191 172 170 166 171 172 173 174 175 171 171 169 164 163 162 165 166 162 159 161 158 154 155 155 166 173 175 165 164 164 164 165 159 153 149 148 155 145 144 146 144 146 144 140 145 166 172 169 181
262 258 254 252 249 244 235 228 222 216 210 202 196 199 200 195 193 195 194 198 196 196 198 201 196 195 196 194 194 193 194 194 193 193 196 197 190 169 170 170 172 170 174 175 174 171 171 169 165 162 163 165 166 160 160 160 157 161 163 167 171 175 175 170 172 167 166 161 161 155 153 152 153 146 144 132 136 137 132 127 128 140 140 144 156
257 245 249 251 253 251 246 238 231 225 214 203 199 197 193 193 195 194 197 198 195 193 195 198 196 196 193 190 193 195 194 193 193 195 196 195 185 168 171 175 175 168 173 175 170 170 167 168 166 165 165 164 162 159 160 165 165 167 168 171 173 177 178 176 174 168 164 169 168 159 157 159 159 149 146 141 138 133 133 125 121 116 120 122 125
290 282 264 253 247 243 236 231 227 221 212 200 198 196 194 193 191 194 198 196 193 192 192 195 196 194 191 192 192 192 193 194 194 194 195 191 184 165 173 174 171 173 175 168 168 169 169 171 168 170 168 166 165 161 161 164 165 170 171 168 173 176 177 178 173 170 168 174 171 168 161 163 162 151 147 149 144 140 134 131 124 121 119 118 121
294 290 283 269 255 246 242 237 230 222 211 202 197 196 196 194 194 193 195 189 189 189 198 196 195 194 192 192 192 193 195 196 194 194 192 188 184 172 171 171 173 174 169 171 170 173 175 177 175 172 168 165 162 164 165 165 167 168 170 167 169 171 174 175 173 173 175 175 174 168 164 165 164 159 156 146 147 145 137 133 129 126 125 123 119
291 288 281 274 266 254 244 238 231 223 214 205 201 199 196 195 194 192 190 184 184 194 196 194 194 196 194 194 194 196 196 195 193 191 187 186 182 176 175 174 175 174 170 171 177 176 177 177 174 168 167 162 160 160 161 161 165 168 170 167 164 167 169 169 176 176 175 175 174 167 164 166 169 163 154 155 151 148 148 144 138 132 131 131 126
288 285 275 265 264 262 250 237 223 217 213 210 204 202 197 195 193 190 187 181 180 189 194 195 194 195 196 196 197 196 195 194 192 178 183 186 183 184 179 172 170 173 176 176 176 177 174 176 171 170 165 157 152 156 158 162 164 165 166 166 165 167 171 170 172 176 173 176 174 168 168 171 173 163 160 155 151 153 155 150 144 143 143 138 131
295 289 280 272 270 263 254 243 232 220 211 206 203 199 196 195 195 190 193 189 177 186 192 193 193 196 196 196 193 192 193 188 181 182 172 180 180 181 172 171 169 172 174 178 176 175 171 174 168 166 162 157 156 160 160 162 163 166 166 166 169 172 170 171 173 173 174 174 173 168 169 173 166 150 149 152 162 159 162 158 155 157 156 147 141
288 287 288 287 282 276 263 248 236 225 216 209 203 200 195 192 187 184 193 199 192 192 193 193 195 197 193 190 188 184 183 181 167 181 177 169 164 173 176 171 172 174 170 171 172 173 173 172 167 167 163 160 160 161 167 166 164 163 166 165 167 172 173 171 171 169 172 176 173 168 161 151 145 142 147 153 153 165 170 165 164 167 164 157 154
287 284 284 285 284 276 265 246 233 226 221 211 204 199 195 192 190 188 192 197 192 192 194 194 197 195 188 186 185 187 173 166 173 185 173 164 167 169 175 175 175 173 170 165 167 171 176 173 168 166 168 169 167 169 163 165 166 161 161 165 168 171 174 172 172 172 173 171 165 165 162 157 153 152 154 158 160 165 161 143 151 163 168 168 162
285 284 283 283 281 272 259 248 233 223 216 210 200 194 189 191 188 198 198 194 192 193 195 197 197 186 185 185 187 181 179 176 175 182 175 159 156 163 175 174 174 172 167 165 170 175 175 171 168 168 167 170 172 162 163 166 167 166 165 162 166 168 172 175 178 176 170 165 168 167 168 166 175 170 161 161 161 157 149 147 153 154 167 330 348
278 280 277 277 275 269 260 250 242 226 217 210 200 194 196 193 197 199 193 191 192 192 194 194 187 182 181 184 181 181 180 176 182 182 168 149 157 165 173 177 181 176 157 170 177 172 176 174 170 170 171 171 168 159 165 167 169 170 168 162 170 170 172 177 176 177 173 171 169 168 166 171 162 153 161 168 163 157 153 158 161 159 166 194 212
276 274 271 274 272 263 257 248 242 232 221 211 199 197 193 186 188 191 189 187 188 189 188 186 182 183 180 170 173 181 179 174 174 169 152 160 162 171 173 175 172 168 165 174 180 178 175 174 173 171 170 173 167 163 167 168 169 169 168 169 168 168 173 175 176 176 173 173 172 172 172 172 165 172 178 169 168 160 159 159 164 180 189 193 204
282 281 274 269 268 265 258 250 241 229 216 204 200 193 188 190 188 187 185 186 187 184 184 180 179 179 169 175 170 175 173 164 163 169 172 167 173 180 185 182 176 176 173 177 179 181 178 176 175 173 171 171 169 162 166 168 168 167 168 172 164 164 170 173 177 176 174 175 175 175 177 175 170 176 174 171 168 164 160 161 169 182 202 202 206
281 279 276 273 262 256 253 249 239 219 210 204 198 194 196 193 189 188 189 189 188 186 180 179 181 183 182 180 177 177 174 170 172 174 176 175 173 182 186 179 175 172 177 168 179 185 177 176 172 171 172 173 160 166 167 168 166 166 164 171 164 168 172 175 176 175 175 179 176 173 175 174 171 175 159 165 165 155 159 167 178 190 205 210 216
284 272 270 269 263 255 255 255 242 216 205 200 195 193 193 187 181 177 182 185 185 186 182 183 185 182 182 180 176 172 171 172 173 175 175 165 168 175 184 174 176 181 179 176 182 186 182 173 164 166 167 157 153 174 167 166 164 163 165 171 164 169 174 177 178 173 176 174 172 175 178 173 170 176 157 162 152 158 170 176 183 193 203 205 214
285 281 270 265 261 256 245 241 231 213 204 195 194 191 186 179 180 179 176 183 186 185 182 184 185 181 179 175 173 171 171 173 174 178 178 175 166 176 175 177 182 177 184 183 179 181 183 177 171 168 160 174 183 174 168 166 164 168 173 169 167 171 172 174 170 172 176 177 176 173 177 175 173 173 156 166 161 168 178 180 188 193 194 202 207
290 283 276 274 266 253 245 228 224 213 204 196 191 188 186 180 183 181 176 182 187 182 181 184 180 176 175 170 169 171 171 172 177 179 174 173 179 179 169 167 182 184 186 181 171 179 171 161 163 170 176 173 143 171 174 167 168 173 176 161 166 168 168 171 171 172 175 179 177 181 180 177 182 157 161 168 173 181 186 185 188 192 195 202 207
298 291 273 269 275 266 235 226 225 220 199 189 185 186 183 181 177 175 183 187 186 186 191 185 172 167 163 164 166 169 172 175 179 177 176 176 171 171 177 176 176 181 185 186 182 166 160 169 170 180 179 164 154 161 177 174 172 174 178 165 166 168 175 173 175 173 174 182 178 181 185 186 179 160 171 175 180 190 191 189 188 196 196 202 201
296 290 297 293 281 243 232 221 215 201 193 188 184 183 177 174 177 180 186 185 182 180 176 172 164 161 162 165 168 173 176 179 175 173 175 175 178 177 170 176 186 173 168 178 179 183 170 170 175 168 166 164 155 160 175 177 177 175 175 163 171 174 173 172 176 176 183 180 181 185 185 184 185 175 175 179 182 191 201 192 194 198 203 157 132
291 287 283 281 278 247 238 238 215 192 187 187 189 185 180 177 176 184 188 178 172 171 171 167 165 165 165 168 171 177 177 178 178 169 170 176 181 181 178 180 174 171 173 177 176 180 184 176 169 161 169 164 159 169 164 180 182 179 176 174 171 175 172 167 169 181 184 185 184 182 187 175 182 182 182 182 187 191 197 205 200 204 132 122 166
308 306 295 277 263 240 226 228 211 201 198 189 194 192 186 178 187 193 186 177 170 166 167 167 166 166 166 169 172 173 177 176 172 174 173 178 180 183 180 172 168 168 169 171 174 180 179 179 174 168 168 167 159 166 173 171 181 180 180 181 180 171 168 168 177 183 186 187 186 182 184 169 179 180 181 185 190 195 188 209 205 180 149 156 151
298 289 287 295 274 253 214 205 203 199 202 199 196 197 195 194 199 194 187 181 170 174 165 162 163 161 163 169 174 177 176 173 171 174 180 177 179 182 169 167 171 168 170 173 178 175 177 174 171 169 175 175 163 158 175 177 176 182 181 180 180 176 171 184 177 184 182 180 180 183 175 169 178 183 186 187 192 184 195 206 203 175 156 158 188
300 295 295 297 276 250 223 195 197 197 198 202 203 200 196 206 209 194 188 183 179 174 165 166 165 168 174 181 180 177 178 174 175 175 179 184 184 180 176 176 167 173 177 176 179 176 177 168 168 168 170 169 169 171 157 180 180 184 182 180 182 178 180 178 182 195 182 184 184 177 173 173 181 186 190 191 187 190 202 203 193 163 159 187 191
295 295 303 296 297 274 235 197 198 195 200 203 203 204 202 208 203 199 194 187 177 172 169 172 176 181 186 183 180 182 185 184 174 181 181 187 188 182 171 160 170 178 182 179 180 176 173 168 171 164 167 166 167 165 161 164 181 185 187 188 185 184 181 184 186 191 187 180 171 174 174 177 181 186 185 188 195 196 203 199 169 164 188 199 200
298 298 305 323 331 281 249 204 194 200 203 209 206 207 211 207 201 196 195 191 181 176 177 176 183 189 187 184 186 190 190 189 181 176 179 168 175 186 179 172 174 175 180 184 174 169 161 162 167 171 167 165 172 170 157 153 172 181 190 191 191 192 183 182 194 187 164 164 167 171 178 179 181 179 185 178 193 158 157 169 180 192 205 202 196
305 297 313 321 355 325 238 196 192 192 201 215 214 211 210 203 199 197 193 188 177 179 179 185 183 179 181 188 194 191 190 189 174 166 164 173 178 180 177 169 167 171 176 179 173 170 166 165 172 167 167 169 171 174 176 176 177 178 183 183 188 180 175 185 188 182 165 165 161 161 154 166 154 151 180 181 188 180 182 177 186 192 199 199 196
336 342 346 6 356 28 339 137 132 174 172 211 217 217 210 200 200 200 195 188 185 185 189 187 187 184 181 187 195 188 194 182 145 146 145 157 170 181 165 164 192 171 167 168 178 178 178 182 173 170 175 182 186 188 191 179 178 178 175 174 177 180 176 178 181 150 135 135 148 165 178 175 179 180 178 189 181 180 180 185 186 188 189 190 191
7 17 28 29 35 41 49 41 79 90 104 193 217 214 210 203 201 199 196 193 184 181 187 187 182 185 187 186 193 184 182 154 133 130 112 77 70 112 164 174 180 191 172 165 159 172 181 178 183 184 177 174 184 192 175 174 180 183 186 184 184 178 175 171 152 150 159 166 179 183 184 184 183 188 188 188 185 185 187 187 194 194 201 198 200
16 26 26 28 26 24 41 50 47 57 90 131 161 172 177 182 182 184 184 184 178 181 188 187 185 192 189 184 169 140 132 132 151 157 160 155 136 56 37 51 106 123 139 147 169 156 167 186 178 168 163 71 91 134 158 172 175 181 184 180 173 174 174 163 143 146 174 181 177 184 183 186 186 192 191 196 189 189 189 192 194 188 204 206 204